owner,sensor,date,latitude,longitude,vertical_datum,wind_speed,wind_to_direction,wind_speed_of_gust,qcFlag 
TCOON,ioos:station:TCOON:146:1,2015-12-01T00:30:00Z,28.1324,-97.0345,0.0,4.3,69.0,5.3,'1111122,1111122,1111122' 
TCOON,ioos:station:TCOON:146:1,2015-12-01T01:30:00Z,28.1324,-97.0345,0.0,4.1,92.0,4.8,'1111122,1111122,1111122' 
TCOON,ioos:station:TCOON:146:1,2015-12-01T02:30:00Z,28.1324,-97.0345,0.0,3.6,90.0,4.6,'1111122,1111122,1111122' 
TCOON,ioos:station:TCOON:146:1,2015-12-01T03:30:00Z,28.1324,-97.0345,0.0,3.7,83.0,4.7,'1111122,1111122,1111122' 
TCOON,ioos:station:TCOON:146:1,2015-12-01T04:30:00Z,28.1324,-97.0345,0.0,2.9,75.0,3.9,'1111122,1111122,1111122' 
TCOON,ioos:station:TCOON:146:1,2015-12-01T06:30:00Z,28.1324,-97.0345,0.0,4.6,69.0,5.3,'1111122,1111122,1111122' 
TCOON,ioos:station:TCOON:146:1,2015-12-01T07:30:00Z,28.1324,-97.0345,0.0,4.0,61.0,5.0,'1111122,1111122,1111122' 
TCOON,ioos:station:TCOON:146:1,2015-12-01T10:30:00Z,28.1324,-97.0345,0.0,4.2,92.0,5.2,'1111122,1111122,1111122' 
TCOON,ioos:station:TCOON:146:1,2015-12-14T18:30:00Z,28.1324,-97.0345,0.0,2.7,310.0,3.4,'1111122,1111122,1111122' 
TCOON,ioos:station:TCOON:146:1,2015-12-14T20:30:00Z,28.1324,-97.0345,0.0,3.9,219.0,4.4,'1111122,1111122,1111122' 
TCOON,ioos:station:TCOON:146:1,2015-12-14T21:30:00Z,28.1324,-97.0345,0.0,3.6,226.0,4.5,'1111122,1111122,1111122' 
TCOON,ioos:station:TCOON:146:1,2015-12-14T22:30:00Z,28.1324,-97.0345,0.0,4.3,229.0,5.0,'1111122,1111122,1111122' 
TCOON,ioos:station:TCOON:146:1,2015-12-15T04:30:00Z,28.1324,-97.0345,0.0,4.2,223.0,4.9,'1111122,1111122,1111122' 
TCOON,ioos:station:TCOON:146:1,2015-12-15T05:30:00Z,28.1324,-97.0345,0.0,4.2,238.0,4.9,'1111122,1111122,1111122' 
TCOON,ioos:station:TCOON:146:1,2015-12-15T06:30:00Z,28.1324,-97.0345,0.0,4.5,224.0,5.1,'1111122,1111122,1111122' 
TCOON,ioos:station:TCOON:146:1,2015-12-15T13:30:00Z,28.1324,-97.0345,0.0,4.2,216.0,4.9,'1111122,1111122,1111122' 
TCOON,ioos:station:TCOON:146:1,2015-12-15T14:30:00Z,28.1324,-97.0345,0.0,3.9,211.0,4.7,'1111122,1111122,1111122' 
TCOON,ioos:station:TCOON:146:1,2015-12-15T15:30:00Z,28.1324,-97.0345,0.0,2.1,166.0,2.9,'1111122,1111122,1111122' 
TCOON,ioos:station:TCOON:146:1,2015-12-15T17:30:00Z,28.1324,-97.0345,0.0,3.9,208.0,4.6,'1111122,1111122,1111122' 
TCOON,ioos:station:TCOON:146:1,2015-12-15T18:30:00Z,28.1324,-97.0345,0.0,3.9,213.0,4.8,'1111122,1111122,1111122' 
TCOON,ioos:station:TCOON:146:1,2015-12-15T21:30:00Z,28.1324,-97.0345,0.0,3.6,213.0,4.7,'1111122,1111122,1111122' 
TCOON,ioos:station:TCOON:146:1,2015-12-15T22:30:00Z,28.1324,-97.0345,0.0,4.2,212.0,4.9,'1111122,1111122,1111122' 
TCOON,ioos:station:TCOON:146:1,2015-12-16T00:30:00Z,28.1324,-97.0345,0.0,4.2,216.0,4.9,'1111122,1111122,1111122' 
TCOON,ioos:station:TCOON:146:1,2015-12-16T01:30:00Z,28.1324,-97.0345,0.0,4.6,222.0,5.0,'1111122,1111122,1111122' 
TCOON,ioos:station:TCOON:146:1,2015-12-16T14:30:00Z,28.1324,-97.0345,0.0,7.6,81.0,9.0,'1111122,1111122,1111122' 
TCOON,ioos:station:TCOON:146:1,2015-12-16T16:30:00Z,28.1324,-97.0345,0.0,7.9,90.0,9.3,'1111122,1111122,1111122' 
TCOON,ioos:station:TCOON:146:1,2015-12-16T19:30:00Z,28.1324,-97.0345,0.0,5.6,74.0,7.0,'1111122,1111122,1111122' 
TCOON,ioos:station:TCOON:146:1,2015-12-16T20:30:00Z,28.1324,-97.0345,0.0,5.8,80.0,7.1,'1111122,1111122,1111122' 
TCOON,ioos:station:TCOON:146:1,2015-12-17T02:30:00Z,28.1324,-97.0345,0.0,5.2,63.0,6.2,'1111122,1111122,1111122' 
TCOON,ioos:station:TCOON:146:1,2015-12-17T03:30:00Z,28.1324,-97.0345,0.0,4.8,67.0,5.8,'1111122,1111122,1111122' 
TCOON,ioos:station:TCOON:146:1,2015-12-17T04:30:00Z,28.1324,-97.0345,0.0,5.4,72.0,6.4,'1111122,1111122,1111122' 
TCOON,ioos:station:TCOON:146:1,2015-12-17T05:30:00Z,28.1324,-97.0345,0.0,5.3,74.0,6.4,'1111122,1111122,1111122' 
TCOON,ioos:station:TCOON:146:1,2015-12-17T06:30:00Z,28.1324,-97.0345,0.0,4.7,70.0,5.7,'1111122,1111122,1111122' 
TCOON,ioos:station:TCOON:146:1,2015-12-17T07:30:00Z,28.1324,-97.0345,0.0,4.2,80.0,5.2,'1111122,1111122,1111122' 
TCOON,ioos:station:TCOON:146:1,2015-12-17T08:30:00Z,28.1324,-97.0345,0.0,4.2,78.0,5.2,'1111122,1111122,1111122' 
TCOON,ioos:station:TCOON:146:1,2015-12-17T09:30:00Z,28.1324,-97.0345,0.0,5.5,82.0,6.8,'1111122,1111122,1111122' 
TCOON,ioos:station:TCOON:146:1,2015-12-17T10:30:00Z,28.1324,-97.0345,0.0,3.8,110.0,4.8,'1111122,1111122,1111122' 
TCOON,ioos:station:TCOON:146:1,2015-12-17T11:30:00Z,28.1324,-97.0345,0.0,4.5,76.0,5.3,'1111122,1111122,1111122' 
TCOON,ioos:station:TCOON:146:1,2015-12-17T13:30:00Z,28.1324,-97.0345,0.0,3.8,45.0,5.3,'1111122,1111122,1111122' 
TCOON,ioos:station:TCOON:146:1,2015-12-17T14:30:00Z,28.1324,-97.0345,0.0,4.7,51.0,5.4,'1111122,1111122,1111122' 
TCOON,ioos:station:TCOON:146:1,2015-12-17T15:30:00Z,28.1324,-97.0345,0.0,4.6,83.0,5.3,'1111122,1111122,1111122' 
TCOON,ioos:station:TCOON:146:1,2015-12-17T17:30:00Z,28.1324,-97.0345,0.0,4.2,93.0,5.1,'1111122,1111122,1111122' 
TCOON,ioos:station:TCOON:146:1,2015-12-17T18:30:00Z,28.1324,-97.0345,0.0,3.7,79.0,5.3,'1111122,1111122,1111122' 
TCOON,ioos:station:TCOON:146:1,2015-12-17T20:30:00Z,28.1324,-97.0345,0.0,2.6,132.0,3.3,'1111122,1111122,1111122' 
TCOON,ioos:station:TCOON:146:1,2015-12-18T00:30:00Z,28.1324,-97.0345,0.0,2.3,222.0,2.9,'1111122,1111122,1111122' 
TCOON,ioos:station:TCOON:146:1,2015-12-18T01:30:00Z,28.1324,-97.0345,0.0,1.9,277.0,2.5,'1111122,1111122,1111122' 
TCOON,ioos:station:TCOON:146:1,2015-12-18T02:30:00Z,28.1324,-97.0345,0.0,1.6,313.0,1.8,'1111122,1111122,1111122' 
TCOON,ioos:station:TCOON:146:1,2015-12-18T03:30:00Z,28.1324,-97.0345,0.0,1.8,300.0,2.1,'1111122,1111122,1111122' 
TCOON,ioos:station:TCOON:146:1,2015-12-18T04:30:00Z,28.1324,-97.0345,0.0,2.1,288.0,2.6,'1111122,1111122,1111122' 
TCOON,ioos:station:TCOON:146:1,2015-12-18T05:30:00Z,28.1324,-97.0345,0.0,2.8,323.0,3.3,'1111122,1111122,1111122' 
TCOON,ioos:station:TCOON:146:1,2015-12-18T06:30:00Z,28.1324,-97.0345,0.0,3.9,10.0,4.4,'1111122,1111122,1111122' 
TCOON,ioos:station:TCOON:146:1,2015-12-18T07:30:00Z,28.1324,-97.0345,0.0,5.3,64.0,6.2,'1111122,1111122,1111122' 
TCOON,ioos:station:TCOON:146:1,2015-12-18T08:30:00Z,28.1324,-97.0345,0.0,6.2,77.0,7.7,'1111122,1111122,1111122' 
TCOON,ioos:station:TCOON:146:1,2015-12-18T09:30:00Z,28.1324,-97.0345,0.0,5.6,86.0,6.6,'1111122,1111122,1111122' 
TCOON,ioos:station:TCOON:146:1,2015-12-18T10:30:00Z,28.1324,-97.0345,0.0,4.8,92.0,6.0,'1111122,1111122,1111122' 
TCOON,ioos:station:TCOON:146:1,2015-12-18T11:30:00Z,28.1324,-97.0345,0.0,4.4,84.0,5.5,'1111122,1111122,1111122' 
TCOON,ioos:station:TCOON:146:1,2015-12-18T12:30:00Z,28.1324,-97.0345,0.0,4.4,76.0,5.2,'1111122,1111122,1111122' 
TCOON,ioos:station:TCOON:146:1,2015-12-18T13:30:00Z,28.1324,-97.0345,0.0,4.4,76.0,5.1,'1111122,1111122,1111122' 
TCOON,ioos:station:TCOON:146:1,2015-12-18T14:30:00Z,28.1324,-97.0345,0.0,4.6,66.0,5.4,'1111122,1111122,1111122' 
TCOON,ioos:station:TCOON:146:1,2015-12-18T15:30:00Z,28.1324,-97.0345,0.0,4.5,87.0,5.3,'1111122,1111122,1111122' 
TCOON,ioos:station:TCOON:146:1,2015-12-18T16:30:00Z,28.1324,-97.0345,0.0,4.4,108.0,5.2,'1111122,1111122,1111122' 
TCOON,ioos:station:TCOON:146:1,2015-12-18T17:30:00Z,28.1324,-97.0345,0.0,4.3,113.0,5.1,'1111122,1111122,1111122' 
TCOON,ioos:station:TCOON:146:1,2015-12-18T18:30:00Z,28.1324,-97.0345,0.0,2.7,105.0,4.7,'1111122,1111122,1111122' 
TCOON,ioos:station:TCOON:146:1,2015-12-18T19:30:00Z,28.1324,-97.0345,0.0,1.5,196.0,2.3,'1111122,1111122,1111122' 
TCOON,ioos:station:TCOON:146:1,2015-12-18T20:30:00Z,28.1324,-97.0345,0.0,2.4,244.0,3.0,'1111122,1111122,1111122' 
TCOON,ioos:station:TCOON:146:1,2015-12-18T21:30:00Z,28.1324,-97.0345,0.0,2.7,221.0,3.4,'1111122,1111122,1111122' 
TCOON,ioos:station:TCOON:146:1,2015-12-18T23:30:00Z,28.1324,-97.0345,0.0,3.4,172.0,3.8,'1111122,1111122,1111122' 
TCOON,ioos:station:TCOON:146:1,2015-12-19T00:30:00Z,28.1324,-97.0345,0.0,3.7,162.0,4.7,'1111122,1111122,1111122' 
TCOON,ioos:station:TCOON:146:1,2015-12-19T01:30:00Z,28.1324,-97.0345,0.0,3.3,170.0,3.9,'1111122,1111122,1111122' 
TCOON,ioos:station:TCOON:146:1,2015-12-19T02:30:00Z,28.1324,-97.0345,0.0,3.1,167.0,3.8,'1111122,1111122,1111122' 
TCOON,ioos:station:TCOON:146:1,2015-12-19T03:30:00Z,28.1324,-97.0345,0.0,2.6,150.0,3.2,'1111122,1111122,1111122' 
TCOON,ioos:station:TCOON:146:1,2015-12-19T04:30:00Z,28.1324,-97.0345,0.0,2.9,125.0,3.4,'1111122,1111122,1111122' 
TCOON,ioos:station:TCOON:146:1,2015-12-19T05:30:00Z,28.1324,-97.0345,0.0,2.8,107.0,3.1,'1111122,1111122,1111122' 
TCOON,ioos:station:TCOON:146:1,2015-12-19T06:30:00Z,28.1324,-97.0345,0.0,2.6,107.0,3.2,'1111122,1111122,1111122' 
TCOON,ioos:station:TCOON:146:1,2015-12-19T07:30:00Z,28.1324,-97.0345,0.0,3.5,110.0,4.1,'1111122,1111122,1111122' 
TCOON,ioos:station:TCOON:146:1,2015-12-19T08:30:00Z,28.1324,-97.0345,0.0,3.3,108.0,3.9,'1111122,1111122,1111122' 
TCOON,ioos:station:TCOON:146:1,2015-12-19T09:30:00Z,28.1324,-97.0345,0.0,2.9,93.0,3.4,'1111122,1111122,1111122' 
TCOON,ioos:station:TCOON:146:1,2015-12-19T10:30:00Z,28.1324,-97.0345,0.0,3.5,99.0,4.2,'1111122,1111122,1111122' 
TCOON,ioos:station:TCOON:146:1,2015-12-19T11:30:00Z,28.1324,-97.0345,0.0,4.7,113.0,5.2,'1111122,1111122,1111122' 
TCOON,ioos:station:TCOON:146:1,2015-12-19T12:30:00Z,28.1324,-97.0345,0.0,4.6,113.0,5.1,'1111122,1111122,1111122' 
TCOON,ioos:station:TCOON:146:1,2015-12-19T13:30:00Z,28.1324,-97.0345,0.0,4.4,114.0,5.2,'1111122,1111122,1111122' 
TCOON,ioos:station:TCOON:146:1,2015-12-19T14:30:00Z,28.1324,-97.0345,0.0,4.5,110.0,5.2,'1111122,1111122,1111122' 
TCOON,ioos:station:TCOON:146:1,2015-12-19T15:30:00Z,28.1324,-97.0345,0.0,3.7,122.0,4.8,'1111122,1111122,1111122' 
TCOON,ioos:station:TCOON:146:1,2015-12-19T16:30:00Z,28.1324,-97.0345,0.0,3.5,160.0,4.0,'1111122,1111122,1111122' 
TCOON,ioos:station:TCOON:146:1,2015-12-19T17:30:00Z,28.1324,-97.0345,0.0,4.1,184.0,5.1,'1111122,1111122,1111122' 
TCOON,ioos:station:TCOON:146:1,2015-12-19T18:30:00Z,28.1324,-97.0345,0.0,4.3,186.0,5.0,'1111122,1111122,1111122' 
TCOON,ioos:station:TCOON:146:1,2015-12-19T19:30:00Z,28.1324,-97.0345,0.0,4.4,186.0,5.1,'1111122,1111122,1111122' 
TCOON,ioos:station:TCOON:146:1,2015-12-19T20:30:00Z,28.1324,-97.0345,0.0,4.6,180.0,5.1,'1111122,1111122,1111122' 
TCOON,ioos:station:TCOON:146:1,2015-12-19T21:30:00Z,28.1324,-97.0345,0.0,3.9,177.0,4.9,'1111122,1111122,1111122' 
TCOON,ioos:station:TCOON:146:1,2015-12-19T22:30:00Z,28.1324,-97.0345,0.0,4.3,177.0,5.0,'1111122,1111122,1111122' 
TCOON,ioos:station:TCOON:146:1,2015-12-19T23:30:00Z,28.1324,-97.0345,0.0,4.6,178.0,5.0,'1111122,1111122,1111122' 
TCOON,ioos:station:TCOON:146:1,2015-12-20T00:30:00Z,28.1324,-97.0345,0.0,3.2,134.0,3.6,'1111122,1111122,1111122' 
TCOON,ioos:station:TCOON:146:1,2015-12-20T01:30:00Z,28.1324,-97.0345,0.0,3.9,139.0,5.0,'1111122,1111122,1111122' 
TCOON,ioos:station:TCOON:146:1,2015-12-20T02:30:00Z,28.1324,-97.0345,0.0,4.0,119.0,4.6,'1111122,1111122,1111122' 
TCOON,ioos:station:TCOON:146:1,2015-12-20T03:30:00Z,28.1324,-97.0345,0.0,1.7,126.0,2.1,'1111122,1111122,1111122' 
TCOON,ioos:station:TCOON:146:1,2015-12-20T04:30:00Z,28.1324,-97.0345,0.0,2.4,129.0,3.1,'1111122,1111122,1111122' 
TCOON,ioos:station:TCOON:146:1,2015-12-20T05:30:00Z,28.1324,-97.0345,0.0,1.6,89.0,2.5,'1111122,1111122,1111122' 
TCOON,ioos:station:TCOON:146:1,2015-12-20T06:30:00Z,28.1324,-97.0345,0.0,2.1,113.0,2.7,'1111122,1111122,1111122' 
TCOON,ioos:station:TCOON:146:1,2015-12-20T08:30:00Z,28.1324,-97.0345,0.0,3.8,195.0,4.6,'1111122,1111122,1111122' 
TCOON,ioos:station:TCOON:146:1,2015-12-20T09:30:00Z,28.1324,-97.0345,0.0,4.2,202.0,4.7,'1111122,1111122,1111122' 
TCOON,ioos:station:TCOON:146:1,2015-12-20T10:30:00Z,28.1324,-97.0345,0.0,3.6,198.0,4.3,'1111122,1111122,1111122' 
TCOON,ioos:station:TCOON:146:1,2015-12-20T11:30:00Z,28.1324,-97.0345,0.0,4.2,199.0,4.8,'1111122,1111122,1111122' 
TCOON,ioos:station:TCOON:146:1,2015-12-20T12:30:00Z,28.1324,-97.0345,0.0,4.1,201.0,4.9,'1111122,1111122,1111122' 
TCOON,ioos:station:TCOON:146:1,2015-12-20T13:30:00Z,28.1324,-97.0345,0.0,3.1,205.0,3.8,'1111122,1111122,1111122' 
TCOON,ioos:station:TCOON:146:1,2015-12-20T15:30:00Z,28.1324,-97.0345,0.0,4.1,211.0,4.7,'1111122,1111122,1111122' 
TCOON,ioos:station:TCOON:146:1,2015-12-20T16:30:00Z,28.1324,-97.0345,0.0,4.0,213.0,5.0,'1111122,1111122,1111122' 
TCOON,ioos:station:TCOON:146:1,2015-12-20T17:30:00Z,28.1324,-97.0345,0.0,4.0,215.0,5.0,'1111122,1111122,1111122' 
TCOON,ioos:station:TCOON:146:1,2015-12-20T18:30:00Z,28.1324,-97.0345,0.0,4.1,230.0,4.8,'1111122,1111122,1111122' 
TCOON,ioos:station:TCOON:146:1,2015-12-20T19:30:00Z,28.1324,-97.0345,0.0,4.3,222.0,5.0,'1111122,1111122,1111122' 
TCOON,ioos:station:TCOON:146:1,2015-12-20T20:30:00Z,28.1324,-97.0345,0.0,4.6,230.0,5.1,'1111122,1111122,1111122' 
TCOON,ioos:station:TCOON:146:1,2015-12-20T21:30:00Z,28.1324,-97.0345,0.0,4.1,223.0,5.1,'1111122,1111122,1111122' 
TCOON,ioos:station:TCOON:146:1,2015-12-20T22:30:00Z,28.1324,-97.0345,0.0,4.4,212.0,5.1,'1111122,1111122,1111122' 
TCOON,ioos:station:TCOON:146:1,2015-12-21T00:30:00Z,28.1324,-97.0345,0.0,4.0,247.0,5.1,'1111122,1111122,1111122' 
TCOON,ioos:station:TCOON:146:1,2015-12-21T01:30:00Z,28.1324,-97.0345,0.0,4.6,239.0,5.1,'1111122,1111122,1111122' 
TCOON,ioos:station:TCOON:146:1,2015-12-21T02:30:00Z,28.1324,-97.0345,0.0,4.2,224.0,5.0,'1111122,1111122,1111122' 
TCOON,ioos:station:TCOON:146:1,2015-12-21T03:30:00Z,28.1324,-97.0345,0.0,3.7,244.0,4.4,'1111122,1111122,1111122' 
TCOON,ioos:station:TCOON:146:1,2015-12-21T04:30:00Z,28.1324,-97.0345,0.0,3.0,232.0,3.5,'1111122,1111122,1111122' 
TCOON,ioos:station:TCOON:146:1,2015-12-21T05:30:00Z,28.1324,-97.0345,0.0,4.1,232.0,5.2,'1111122,1111122,1111122' 
TCOON,ioos:station:TCOON:146:1,2015-12-21T06:30:00Z,28.1324,-97.0345,0.0,4.4,243.0,5.8,'1111122,1111122,1111122' 
TCOON,ioos:station:TCOON:146:1,2015-12-21T07:30:00Z,28.1324,-97.0345,0.0,4.3,247.0,5.4,'1111122,1111122,1111122' 
TCOON,ioos:station:TCOON:146:1,2015-12-21T08:30:00Z,28.1324,-97.0345,0.0,4.9,224.0,6.4,'1111122,1111122,1111122' 
TCOON,ioos:station:TCOON:146:1,2015-12-21T09:30:00Z,28.1324,-97.0345,0.0,5.0,238.0,6.5,'1111122,1111122,1111122' 
TCOON,ioos:station:TCOON:146:1,2015-12-21T12:30:00Z,28.1324,-97.0345,0.0,4.3,327.0,7.0,'1111122,1111122,1111122' 
TCOON,ioos:station:TCOON:146:1,2015-12-21T13:30:00Z,28.1324,-97.0345,0.0,4.4,354.0,5.1,'1111122,1111122,1111122' 
TCOON,ioos:station:TCOON:146:1,2015-12-21T14:30:00Z,28.1324,-97.0345,0.0,2.3,287.0,4.3,'1111122,1111122,1111122' 
TCOON,ioos:station:TCOON:146:1,2015-12-21T15:30:00Z,28.1324,-97.0345,0.0,4.0,265.0,5.6,'1111122,1111122,1111122' 
TCOON,ioos:station:TCOON:146:1,2015-12-21T16:30:00Z,28.1324,-97.0345,0.0,2.7,321.0,4.4,'1111122,1111122,1111122' 
TCOON,ioos:station:TCOON:146:1,2015-12-21T17:30:00Z,28.1324,-97.0345,0.0,4.5,279.0,6.0,'1111122,1111122,1111122' 
TCOON,ioos:station:TCOON:146:1,2015-12-21T18:30:00Z,28.1324,-97.0345,0.0,4.4,273.0,6.2,'1111122,1111122,1111122' 
TCOON,ioos:station:TCOON:146:1,2015-12-21T19:30:00Z,28.1324,-97.0345,0.0,4.1,287.0,4.9,'1111122,1111122,1111122' 
TCOON,ioos:station:TCOON:146:1,2015-12-21T20:30:00Z,28.1324,-97.0345,0.0,2.1,329.0,2.5,'1111122,1111122,1111122' 
TCOON,ioos:station:TCOON:146:1,2015-12-21T21:30:00Z,28.1324,-97.0345,0.0,1.9,316.0,2.2,'1111122,1111122,1111122' 
TCOON,ioos:station:TCOON:146:1,2015-12-21T22:30:00Z,28.1324,-97.0345,0.0,1.5,323.0,1.7,'1111122,1111122,1111122' 
TCOON,ioos:station:TCOON:146:1,2015-12-21T23:30:00Z,28.1324,-97.0345,0.0,1.4,308.0,1.6,'1111122,1111122,1111122' 
TCOON,ioos:station:TCOON:146:1,2015-12-22T00:30:00Z,28.1324,-97.0345,0.0,1.9,292.0,2.1,'1111122,1111122,1111122' 
TCOON,ioos:station:TCOON:146:1,2015-12-22T01:30:00Z,28.1324,-97.0345,0.0,1.7,271.0,1.9,'1111122,1111122,1111122' 
TCOON,ioos:station:TCOON:146:1,2015-12-22T02:30:00Z,28.1324,-97.0345,0.0,0.4,348.0,0.7,'1111122,1111122,1111122' 
TCOON,ioos:station:TCOON:146:1,2015-12-22T03:30:00Z,28.1324,-97.0345,0.0,1.5,347.0,1.6,'1111122,1111122,1111122' 
TCOON,ioos:station:TCOON:146:1,2015-12-22T04:30:00Z,28.1324,-97.0345,0.0,0.8,337.0,1.0,'1111122,1111122,1111122' 
TCOON,ioos:station:TCOON:146:1,2015-12-22T05:30:00Z,28.1324,-97.0345,0.0,1.2,87.0,1.7,'1111122,1111122,1111122' 
TCOON,ioos:station:TCOON:146:1,2015-12-22T06:30:00Z,28.1324,-97.0345,0.0,1.7,84.0,2.3,'1111122,1111122,1111122' 
TCOON,ioos:station:TCOON:146:1,2015-12-22T07:30:00Z,28.1324,-97.0345,0.0,0.9,185.0,1.6,'1111122,1111122,1111122' 
TCOON,ioos:station:TCOON:146:1,2015-12-22T08:30:00Z,28.1324,-97.0345,0.0,1.8,218.0,2.2,'1111122,1111122,1111122' 
TCOON,ioos:station:TCOON:146:1,2015-12-22T10:30:00Z,28.1324,-97.0345,0.0,2.0,50.0,2.5,'1111122,1111122,1111122' 
TCOON,ioos:station:TCOON:146:1,2015-12-22T11:30:00Z,28.1324,-97.0345,0.0,2.3,78.0,2.7,'1111122,1111122,1111122' 
TCOON,ioos:station:TCOON:146:1,2015-12-22T12:30:00Z,28.1324,-97.0345,0.0,2.0,123.0,2.5,'1111122,1111122,1111122' 
TCOON,ioos:station:TCOON:146:1,2015-12-22T13:30:00Z,28.1324,-97.0345,0.0,3.1,82.0,3.8,'1111122,1111122,1111122' 
TCOON,ioos:station:TCOON:146:1,2015-12-22T14:30:00Z,28.1324,-97.0345,0.0,3.8,82.0,4.5,'1111122,1111122,1111122' 
TCOON,ioos:station:TCOON:146:1,2015-12-22T15:30:00Z,28.1324,-97.0345,0.0,3.2,103.0,3.8,'1111122,1111122,1111122' 
TCOON,ioos:station:TCOON:146:1,2015-12-22T16:30:00Z,28.1324,-97.0345,0.0,2.0,114.0,2.6,'1111122,1111122,1111122' 
TCOON,ioos:station:TCOON:146:1,2015-12-22T17:30:00Z,28.1324,-97.0345,0.0,2.0,161.0,2.4,'1111122,1111122,1111122' 
TCOON,ioos:station:TCOON:146:1,2015-12-22T18:30:00Z,28.1324,-97.0345,0.0,3.4,182.0,4.0,'1111122,1111122,1111122' 
TCOON,ioos:station:TCOON:146:1,2015-12-22T19:30:00Z,28.1324,-97.0345,0.0,2.7,202.0,3.6,'1111122,1111122,1111122' 
TCOON,ioos:station:TCOON:146:1,2015-12-22T20:30:00Z,28.1324,-97.0345,0.0,1.9,191.0,2.5,'1111122,1111122,1111122' 
TCOON,ioos:station:TCOON:146:1,2015-12-22T22:30:00Z,28.1324,-97.0345,0.0,3.8,232.0,4.4,'1111122,1111122,1111122' 
TCOON,ioos:station:TCOON:146:1,2015-12-22T23:30:00Z,28.1324,-97.0345,0.0,4.5,237.0,5.1,'1111122,1111122,1111122' 
TCOON,ioos:station:TCOON:146:1,2015-12-23T00:30:00Z,28.1324,-97.0345,0.0,4.2,235.0,5.0,'1111122,1111122,1111122' 
TCOON,ioos:station:TCOON:146:1,2015-12-23T01:30:00Z,28.1324,-97.0345,0.0,3.9,235.0,5.0,'1111122,1111122,1111122' 
TCOON,ioos:station:TCOON:146:1,2015-12-23T02:30:00Z,28.1324,-97.0345,0.0,4.2,247.0,5.1,'1111122,1111122,1111122' 
TCOON,ioos:station:TCOON:146:1,2015-12-23T03:30:00Z,28.1324,-97.0345,0.0,4.6,241.0,5.9,'1111122,1111122,1111122' 
TCOON,ioos:station:TCOON:146:1,2015-12-23T04:30:00Z,28.1324,-97.0345,0.0,4.9,251.0,6.9,'1111122,1111122,1111122' 
TCOON,ioos:station:TCOON:146:1,2015-12-23T05:30:00Z,28.1324,-97.0345,0.0,5.2,242.0,6.9,'1111122,1111122,1111122' 
TCOON,ioos:station:TCOON:146:1,2015-12-23T06:30:00Z,28.1324,-97.0345,0.0,6.1,245.0,7.3,'1111122,1111122,1111122' 
TCOON,ioos:station:TCOON:146:1,2015-12-23T07:30:00Z,28.1324,-97.0345,0.0,6.1,243.0,7.7,'1111122,1111122,1111122' 
TCOON,ioos:station:TCOON:146:1,2015-12-23T08:30:00Z,28.1324,-97.0345,0.0,6.2,241.0,7.7,'1111122,1111122,1111122' 
TCOON,ioos:station:TCOON:146:1,2015-12-23T09:30:00Z,28.1324,-97.0345,0.0,6.5,244.0,8.6,'1111122,1111122,1111122' 
TCOON,ioos:station:TCOON:146:1,2015-12-23T10:30:00Z,28.1324,-97.0345,0.0,6.0,250.0,8.5,'1111122,1111122,1111122' 
TCOON,ioos:station:TCOON:146:1,2015-12-23T11:30:00Z,28.1324,-97.0345,0.0,7.0,256.0,8.9,'1111122,1111122,1111122' 
TCOON,ioos:station:TCOON:146:1,2015-12-23T12:30:00Z,28.1324,-97.0345,0.0,7.0,262.0,9.3,'1111122,1111122,1111122' 
TCOON,ioos:station:TCOON:146:1,2015-12-23T13:30:00Z,28.1324,-97.0345,0.0,6.6,277.0,8.4,'1111122,1111122,1111122' 
TCOON,ioos:station:TCOON:146:1,2015-12-23T14:30:00Z,28.1324,-97.0345,0.0,4.5,324.0,5.0,'1111122,1111122,1111122' 
TCOON,ioos:station:TCOON:146:1,2015-12-23T15:30:00Z,28.1324,-97.0345,0.0,4.4,318.0,5.0,'1111122,1111122,1111122' 
TCOON,ioos:station:TCOON:146:1,2015-12-23T16:30:00Z,28.1324,-97.0345,0.0,3.9,304.0,4.4,'1111122,1111122,1111122' 
TCOON,ioos:station:TCOON:146:1,2015-12-23T17:30:00Z,28.1324,-97.0345,0.0,3.6,303.0,4.4,'1111122,1111122,1111122' 
TCOON,ioos:station:TCOON:146:1,2015-12-23T18:30:00Z,28.1324,-97.0345,0.0,3.3,284.0,3.5,'1111122,1111122,1111122' 
TCOON,ioos:station:TCOON:146:1,2015-12-23T19:30:00Z,28.1324,-97.0345,0.0,3.0,226.0,4.0,'1111122,1111122,1111122' 
TCOON,ioos:station:TCOON:146:1,2015-12-23T20:30:00Z,28.1324,-97.0345,0.0,2.4,223.0,3.1,'1111122,1111122,1111122' 
TCOON,ioos:station:TCOON:146:1,2015-12-23T21:30:00Z,28.1324,-97.0345,0.0,3.7,219.0,4.2,'1111122,1111122,1111122' 
TCOON,ioos:station:TCOON:146:1,2015-12-23T22:30:00Z,28.1324,-97.0345,0.0,4.6,231.0,5.0,'1111122,1111122,1111122' 
TCOON,ioos:station:TCOON:146:1,2015-12-23T23:30:00Z,28.1324,-97.0345,0.0,3.9,228.0,4.5,'1111122,1111122,1111122' 
TCOON,ioos:station:TCOON:146:1,2015-12-24T00:30:00Z,28.1324,-97.0345,0.0,3.6,231.0,4.2,'1111122,1111122,1111122' 
TCOON,ioos:station:TCOON:146:1,2015-12-24T01:30:00Z,28.1324,-97.0345,0.0,3.5,224.0,3.9,'1111122,1111122,1111122' 
TCOON,ioos:station:TCOON:146:1,2015-12-24T02:30:00Z,28.1324,-97.0345,0.0,2.7,208.0,2.9,'1111122,1111122,1111122' 
TCOON,ioos:station:TCOON:146:1,2015-12-24T03:30:00Z,28.1324,-97.0345,0.0,2.3,203.0,3.0,'1111122,1111122,1111122' 
TCOON,ioos:station:TCOON:146:1,2015-12-24T04:30:00Z,28.1324,-97.0345,0.0,2.2,198.0,2.8,'1111122,1111122,1111122' 
TCOON,ioos:station:TCOON:146:1,2015-12-24T05:30:00Z,28.1324,-97.0345,0.0,3.1,186.0,3.5,'1111122,1111122,1111122' 
TCOON,ioos:station:TCOON:146:1,2015-12-24T06:30:00Z,28.1324,-97.0345,0.0,3.4,207.0,4.8,'1111122,1111122,1111122' 
TCOON,ioos:station:TCOON:146:1,2015-12-24T07:30:00Z,28.1324,-97.0345,0.0,4.2,212.0,5.0,'1111122,1111122,1111122' 
TCOON,ioos:station:TCOON:146:1,2015-12-24T08:30:00Z,28.1324,-97.0345,0.0,4.2,233.0,5.1,'1111122,1111122,1111122' 
TCOON,ioos:station:TCOON:146:1,2015-12-24T09:30:00Z,28.1324,-97.0345,0.0,1.7,211.0,2.2,'1111122,1111122,1111122' 
TCOON,ioos:station:TCOON:146:1,2015-12-24T10:30:00Z,28.1324,-97.0345,0.0,2.4,217.0,3.4,'1111122,1111122,1111122' 
TCOON,ioos:station:TCOON:146:1,2015-12-24T11:30:00Z,28.1324,-97.0345,0.0,4.4,212.0,5.0,'1111122,1111122,1111122' 
TCOON,ioos:station:TCOON:146:1,2015-12-24T12:30:00Z,28.1324,-97.0345,0.0,3.5,202.0,4.6,'1111122,1111122,1111122' 
TCOON,ioos:station:TCOON:146:1,2015-12-24T13:30:00Z,28.1324,-97.0345,0.0,3.6,225.0,4.8,'1111122,1111122,1111122' 
TCOON,ioos:station:TCOON:146:1,2015-12-24T14:30:00Z,28.1324,-97.0345,0.0,1.1,191.0,1.8,'1111122,1111122,1111122' 
TCOON,ioos:station:TCOON:146:1,2015-12-24T15:30:00Z,28.1324,-97.0345,0.0,3.0,209.0,3.5,'1111122,1111122,1111122' 
TCOON,ioos:station:TCOON:146:1,2015-12-24T16:30:00Z,28.1324,-97.0345,0.0,3.1,225.0,3.7,'1111122,1111122,1111122' 
TCOON,ioos:station:TCOON:146:1,2015-12-24T17:30:00Z,28.1324,-97.0345,0.0,2.0,210.0,2.2,'1111122,1111122,1111122' 
TCOON,ioos:station:TCOON:146:1,2015-12-24T18:30:00Z,28.1324,-97.0345,0.0,2.1,215.0,2.5,'1111122,1111122,1111122' 
TCOON,ioos:station:TCOON:146:1,2015-12-24T19:30:00Z,28.1324,-97.0345,0.0,3.0,213.0,4.0,'1111122,1111122,1111122' 
TCOON,ioos:station:TCOON:146:1,2015-12-24T20:30:00Z,28.1324,-97.0345,0.0,2.0,211.0,2.3,'1111122,1111122,1111122' 
TCOON,ioos:station:TCOON:146:1,2015-12-24T21:30:00Z,28.1324,-97.0345,0.0,2.8,211.0,3.2,'1111122,1111122,1111122' 
TCOON,ioos:station:TCOON:146:1,2015-12-24T22:30:00Z,28.1324,-97.0345,0.0,3.3,204.0,4.1,'1111122,1111122,1111122' 
TCOON,ioos:station:TCOON:146:1,2015-12-24T23:30:00Z,28.1324,-97.0345,0.0,3.0,211.0,3.5,'1111122,1111122,1111122' 
TCOON,ioos:station:TCOON:146:1,2015-12-25T00:30:00Z,28.1324,-97.0345,0.0,2.0,216.0,2.5,'1111122,1111122,1111122' 
TCOON,ioos:station:TCOON:146:1,2015-12-25T01:30:00Z,28.1324,-97.0345,0.0,1.7,225.0,2.1,'1111122,1111122,1111122' 
TCOON,ioos:station:TCOON:146:1,2015-12-25T04:30:00Z,28.1324,-97.0345,0.0,1.6,202.0,1.9,'1111122,1111122,1111122' 
TCOON,ioos:station:TCOON:146:1,2015-12-25T05:30:00Z,28.1324,-97.0345,0.0,1.2,190.0,1.7,'1111122,1111122,1111122' 
TCOON,ioos:station:TCOON:146:1,2015-12-25T06:30:00Z,28.1324,-97.0345,0.0,1.1,192.0,1.4,'1111122,1111122,1111122' 